owner,sensor,date,latitude,longitude,air_temperature,qcFlag 
DISL,ioos:station:DISL:CATA:1,2014-03-01T00:00:00Z,30.3085,-88.1395,12.71,1111122 
DISL,ioos:station:DISL:CATA:1,2014-03-01T00:30:00Z,30.3085,-88.1395,12.47,1111122 
DISL,ioos:station:DISL:CATA:1,2014-03-01T01:00:00Z,30.3085,-88.1395,12.43,1111122 
DISL,ioos:station:DISL:CATA:1,2014-03-01T01:30:00Z,30.3085,-88.1395,12.3,1111122 
DISL,ioos:station:DISL:CATA:1,2014-03-01T02:00:00Z,30.3085,-88.1395,12.67,1111122 
DISL,ioos:station:DISL:CATA:1,2014-03-01T02:30:00Z,30.3085,-88.1395,13.15,1111122 
DISL,ioos:station:DISL:CATA:1,2014-03-01T03:00:00Z,30.3085,-88.1395,13.22,1111122 
DISL,ioos:station:DISL:CATA:1,2014-03-01T03:30:00Z,30.3085,-88.1395,13.29,1111122 
DISL,ioos:station:DISL:CATA:1,2014-03-01T04:00:00Z,30.3085,-88.1395,13.05,1111122 
DISL,ioos:station:DISL:CATA:1,2014-03-01T04:30:00Z,30.3085,-88.1395,13.46,1111122 
DISL,ioos:station:DISL:CATA:1,2014-03-01T05:00:00Z,30.3085,-88.1395,13.6,1111122 
DISL,ioos:station:DISL:CATA:1,2014-03-01T05:30:00Z,30.3085,-88.1395,13.57,1111122 
DISL,ioos:station:DISL:CATA:1,2014-03-01T06:30:00Z,30.3085,-88.1395,14.36,1111122 
DISL,ioos:station:DISL:CATA:1,2014-03-01T07:00:00Z,30.3085,-88.1395,14.29,1111122 
DISL,ioos:station:DISL:CATA:1,2014-03-01T07:30:00Z,30.3085,-88.1395,14.39,1111122 
DISL,ioos:station:DISL:CATA:1,2014-03-01T08:00:00Z,30.3085,-88.1395,14.53,1111122 
DISL,ioos:station:DISL:CATA:1,2014-03-01T08:30:00Z,30.3085,-88.1395,14.45,1111122 
DISL,ioos:station:DISL:CATA:1,2014-03-01T09:00:00Z,30.3085,-88.1395,14.73,1111122 
DISL,ioos:station:DISL:CATA:1,2014-03-01T09:30:00Z,30.3085,-88.1395,14.59,1111122 
DISL,ioos:station:DISL:CATA:1,2014-03-01T10:00:00Z,30.3085,-88.1395,14.52,1111122 
DISL,ioos:station:DISL:CATA:1,2014-03-01T10:30:00Z,30.3085,-88.1395,14.79,1111122 
DISL,ioos:station:DISL:CATA:1,2014-03-01T11:00:00Z,30.3085,-88.1395,14.38,1111122 
DISL,ioos:station:DISL:CATA:1,2014-03-01T11:30:00Z,30.3085,-88.1395,13.87,1111122 
DISL,ioos:station:DISL:CATA:1,2014-03-01T12:00:00Z,30.3085,-88.1395,13.94,1111122 
DISL,ioos:station:DISL:CATA:1,2014-03-01T12:30:00Z,30.3085,-88.1395,13.6,1111122 
DISL,ioos:station:DISL:CATA:1,2014-03-01T13:00:00Z,30.3085,-88.1395,13.09,1111122 
DISL,ioos:station:DISL:CATA:1,2014-03-01T13:30:00Z,30.3085,-88.1395,12.57,1111122 
DISL,ioos:station:DISL:CATA:1,2014-03-01T14:00:00Z,30.3085,-88.1395,13.57,1111122 
DISL,ioos:station:DISL:CATA:1,2014-03-01T14:30:00Z,30.3085,-88.1395,13.08,1111122 
DISL,ioos:station:DISL:CATA:1,2014-03-01T15:00:00Z,30.3085,-88.1395,13.27,1111122 
DISL,ioos:station:DISL:CATA:1,2014-03-01T15:30:00Z,30.3085,-88.1395,14.3,1111122 
DISL,ioos:station:DISL:CATA:1,2014-03-01T16:00:00Z,30.3085,-88.1395,14.98,1111122 
DISL,ioos:station:DISL:CATA:1,2014-03-01T16:30:00Z,30.3085,-88.1395,15.59,1111122 
DISL,ioos:station:DISL:CATA:1,2014-03-01T17:00:00Z,30.3085,-88.1395,15.31,1111122 
DISL,ioos:station:DISL:CATA:1,2014-03-01T17:30:00Z,30.3085,-88.1395,16.1,1111122 
DISL,ioos:station:DISL:CATA:1,2014-03-01T18:00:00Z,30.3085,-88.1395,16.03,1111122 
DISL,ioos:station:DISL:CATA:1,2014-03-01T18:30:00Z,30.3085,-88.1395,15.76,1111122 
DISL,ioos:station:DISL:CATA:1,2014-03-01T19:00:00Z,30.3085,-88.1395,16.03,1111122 
DISL,ioos:station:DISL:CATA:1,2014-03-01T19:30:00Z,30.3085,-88.1395,16.51,1111122 
DISL,ioos:station:DISL:CATA:1,2014-03-01T20:00:00Z,30.3085,-88.1395,16.75,1111122 
DISL,ioos:station:DISL:CATA:1,2014-03-01T20:30:00Z,30.3085,-88.1395,16.82,1111122 
DISL,ioos:station:DISL:CATA:1,2014-03-01T21:00:00Z,30.3085,-88.1395,16.72,1111122 
DISL,ioos:station:DISL:CATA:1,2014-03-01T21:30:00Z,30.3085,-88.1395,16.65,1111122 
DISL,ioos:station:DISL:CATA:1,2014-03-01T22:00:00Z,30.3085,-88.1395,16.93,1111122 
DISL,ioos:station:DISL:CATA:1,2014-03-01T22:30:00Z,30.3085,-88.1395,17.31,1111122 
DISL,ioos:station:DISL:CATA:1,2014-03-01T23:00:00Z,30.3085,-88.1395,17.18,1111122 
DISL,ioos:station:DISL:CATA:1,2014-03-01T23:30:00Z,30.3085,-88.1395,17.04,1111122 
DISL,ioos:station:DISL:CATA:1,2014-03-02T00:00:00Z,30.3085,-88.1395,15.3,1111122 
DISL,ioos:station:DISL:CATA:1,2014-03-02T00:30:00Z,30.3085,-88.1395,14.85,1111122 
DISL,ioos:station:DISL:CATA:1,2014-03-02T01:00:00Z,30.3085,-88.1395,15.13,1111122 
DISL,ioos:station:DISL:CATA:1,2014-03-02T01:30:00Z,30.3085,-88.1395,15.02,1111122 
DISL,ioos:station:DISL:CATA:1,2014-03-02T02:00:00Z,30.3085,-88.1395,15.68,1111122 
DISL,ioos:station:DISL:CATA:1,2014-03-02T02:30:00Z,30.3085,-88.1395,15.88,1111122 
DISL,ioos:station:DISL:CATA:1,2014-03-02T03:00:00Z,30.3085,-88.1395,15.57,1111122 
DISL,ioos:station:DISL:CATA:1,2014-03-02T03:30:00Z,30.3085,-88.1395,16.26,1111122 
DISL,ioos:station:DISL:CATA:1,2014-03-02T04:00:00Z,30.3085,-88.1395,16.09,1111122 
DISL,ioos:station:DISL:CATA:1,2014-03-02T04:30:00Z,30.3085,-88.1395,15.85,1111122 
DISL,ioos:station:DISL:CATA:1,2014-03-02T05:00:00Z,30.3085,-88.1395,15.68,1111122 
DISL,ioos:station:DISL:CATA:1,2014-03-02T05:30:00Z,30.3085,-88.1395,14.92,1111122 
DISL,ioos:station:DISL:CATA:1,2014-03-02T06:30:00Z,30.3085,-88.1395,14.48,1111122 
DISL,ioos:station:DISL:CATA:1,2014-03-02T07:00:00Z,30.3085,-88.1395,15.31,1111122 
DISL,ioos:station:DISL:CATA:1,2014-03-02T07:30:00Z,30.3085,-88.1395,14.9,1111122 
DISL,ioos:station:DISL:CATA:1,2014-03-02T08:00:00Z,30.3085,-88.1395,15.27,1111122 
DISL,ioos:station:DISL:CATA:1,2014-03-02T08:30:00Z,30.3085,-88.1395,14.42,1111122 
DISL,ioos:station:DISL:CATA:1,2014-03-02T09:00:00Z,30.3085,-88.1395,14.9,1111122 
DISL,ioos:station:DISL:CATA:1,2014-03-02T09:30:00Z,30.3085,-88.1395,14.08,1111122 
DISL,ioos:station:DISL:CATA:1,2014-03-02T10:00:00Z,30.3085,-88.1395,14.93,1111122 
DISL,ioos:station:DISL:CATA:1,2014-03-02T10:30:00Z,30.3085,-88.1395,14.29,1111122 
DISL,ioos:station:DISL:CATA:1,2014-03-02T11:00:00Z,30.3085,-88.1395,14.08,1111122 
DISL,ioos:station:DISL:CATA:1,2014-03-02T11:30:00Z,30.3085,-88.1395,14.32,1111122 
DISL,ioos:station:DISL:CATA:1,2014-03-02T12:00:00Z,30.3085,-88.1395,14.08,1111122 
DISL,ioos:station:DISL:CATA:1,2014-03-02T12:30:00Z,30.3085,-88.1395,13.88,1111122 
DISL,ioos:station:DISL:CATA:1,2014-03-02T13:00:00Z,30.3085,-88.1395,14.7,1111122 
DISL,ioos:station:DISL:CATA:1,2014-03-02T13:30:00Z,30.3085,-88.1395,14.46,1111122 
DISL,ioos:station:DISL:CATA:1,2014-03-02T14:00:00Z,30.3085,-88.1395,14.41,1111122 
DISL,ioos:station:DISL:CATA:1,2014-03-02T14:30:00Z,30.3085,-88.1395,14.41,1111122 
DISL,ioos:station:DISL:CATA:1,2014-03-02T15:00:00Z,30.3085,-88.1395,14.65,1111122 
DISL,ioos:station:DISL:CATA:1,2014-03-02T15:30:00Z,30.3085,-88.1395,15.4,1111122 
DISL,ioos:station:DISL:CATA:1,2014-03-02T16:00:00Z,30.3085,-88.1395,15.72,1111122 
DISL,ioos:station:DISL:CATA:1,2014-03-02T16:30:00Z,30.3085,-88.1395,16.27,1111122 
DISL,ioos:station:DISL:CATA:1,2014-03-02T17:00:00Z,30.3085,-88.1395,16.44,1111122 
DISL,ioos:station:DISL:CATA:1,2014-03-02T17:30:00Z,30.3085,-88.1395,16.79,1111122 
DISL,ioos:station:DISL:CATA:1,2014-03-02T18:00:00Z,30.3085,-88.1395,17.03,1111122 
DISL,ioos:station:DISL:CATA:1,2014-03-02T18:30:00Z,30.3085,-88.1395,16.82,1111122 
DISL,ioos:station:DISL:CATA:1,2014-03-02T19:00:00Z,30.3085,-88.1395,17.06,1111122 
DISL,ioos:station:DISL:CATA:1,2014-03-02T19:30:00Z,30.3085,-88.1395,16.85,1111122 
DISL,ioos:station:DISL:CATA:1,2014-03-02T20:00:00Z,30.3085,-88.1395,16.61,1111122 
DISL,ioos:station:DISL:CATA:1,2014-03-02T20:30:00Z,30.3085,-88.1395,16.92,1111122 
DISL,ioos:station:DISL:CATA:1,2014-03-02T21:00:00Z,30.3085,-88.1395,17.1,1111122 
DISL,ioos:station:DISL:CATA:1,2014-03-02T21:30:00Z,30.3085,-88.1395,17.58,1111122 
DISL,ioos:station:DISL:CATA:1,2014-03-02T22:00:00Z,30.3085,-88.1395,17.24,1111122 
DISL,ioos:station:DISL:CATA:1,2014-03-02T22:30:00Z,30.3085,-88.1395,17.51,1111122 
DISL,ioos:station:DISL:CATA:1,2014-03-02T23:00:00Z,30.3085,-88.1395,17.31,1111122 
DISL,ioos:station:DISL:CATA:1,2014-03-02T23:30:00Z,30.3085,-88.1395,16.56,1111122 
DISL,ioos:station:DISL:CATA:1,2014-03-03T00:00:00Z,30.3085,-88.1395,15.74,1111122 
DISL,ioos:station:DISL:CATA:1,2014-03-03T00:30:00Z,30.3085,-88.1395,16.32,1111122 
DISL,ioos:station:DISL:CATA:1,2014-03-03T01:00:00Z,30.3085,-88.1395,16.74,1111122 
DISL,ioos:station:DISL:CATA:1,2014-03-03T01:30:00Z,30.3085,-88.1395,16.02,1111122 
DISL,ioos:station:DISL:CATA:1,2014-03-03T02:00:00Z,30.3085,-88.1395,16.6,1111122 
DISL,ioos:station:DISL:CATA:1,2014-03-03T02:30:00Z,30.3085,-88.1395,16.5,1111122 
DISL,ioos:station:DISL:CATA:1,2014-03-03T03:00:00Z,30.3085,-88.1395,16.91,1111122 
DISL,ioos:station:DISL:CATA:1,2014-03-03T03:30:00Z,30.3085,-88.1395,16.12,1111122 
DISL,ioos:station:DISL:CATA:1,2014-03-03T04:00:00Z,30.3085,-88.1395,16.77,1111122 
DISL,ioos:station:DISL:CATA:1,2014-03-03T04:30:00Z,30.3085,-88.1395,16.67,1111122 
DISL,ioos:station:DISL:CATA:1,2014-03-03T05:00:00Z,30.3085,-88.1395,16.77,1111122 
DISL,ioos:station:DISL:CATA:1,2014-03-03T05:30:00Z,30.3085,-88.1395,17.18,1111122 
DISL,ioos:station:DISL:CATA:1,2014-03-03T06:30:00Z,30.3085,-88.1395,16.29,1111122 
DISL,ioos:station:DISL:CATA:1,2014-03-03T07:00:00Z,30.3085,-88.1395,16.32,1111122 
DISL,ioos:station:DISL:CATA:1,2014-03-03T07:30:00Z,30.3085,-88.1395,16.02,1111122 
DISL,ioos:station:DISL:CATA:1,2014-03-03T08:00:00Z,30.3085,-88.1395,15.95,1111122 
DISL,ioos:station:DISL:CATA:1,2014-03-03T08:30:00Z,30.3085,-88.1395,16.05,1111122 
DISL,ioos:station:DISL:CATA:1,2014-03-03T09:00:00Z,30.3085,-88.1395,16.29,1111122 
DISL,ioos:station:DISL:CATA:1,2014-03-03T09:30:00Z,30.3085,-88.1395,16.19,1111122 
DISL,ioos:station:DISL:CATA:1,2014-03-03T10:00:00Z,30.3085,-88.1395,16.46,1111122 
DISL,ioos:station:DISL:CATA:1,2014-03-03T10:30:00Z,30.3085,-88.1395,16.29,1111122 
DISL,ioos:station:DISL:CATA:1,2014-03-03T11:00:00Z,30.3085,-88.1395,16.6,1111122 
DISL,ioos:station:DISL:CATA:1,2014-03-03T11:30:00Z,30.3085,-88.1395,17.04,1111122 
DISL,ioos:station:DISL:CATA:1,2014-03-03T12:00:00Z,30.3085,-88.1395,16.7,1111122 
DISL,ioos:station:DISL:CATA:1,2014-03-03T12:30:00Z,30.3085,-88.1395,16.98,1111122 
DISL,ioos:station:DISL:CATA:1,2014-03-03T13:00:00Z,30.3085,-88.1395,17.01,1111122 
DISL,ioos:station:DISL:CATA:1,2014-03-03T13:30:00Z,30.3085,-88.1395,16.43,1111122 
DISL,ioos:station:DISL:CATA:1,2014-03-03T14:00:00Z,30.3085,-88.1395,17.11,1111122 
DISL,ioos:station:DISL:CATA:1,2014-03-03T14:30:00Z,30.3085,-88.1395,16.87,1111122 
DISL,ioos:station:DISL:CATA:1,2014-03-03T15:00:00Z,30.3085,-88.1395,13.72,1111122 
DISL,ioos:station:DISL:CATA:1,2014-03-03T15:30:00Z,30.3085,-88.1395,11.59,1111122 
DISL,ioos:station:DISL:CATA:1,2014-03-03T16:00:00Z,30.3085,-88.1395,10.2,1111122 
DISL,ioos:station:DISL:CATA:1,2014-03-03T16:30:00Z,30.3085,-88.1395,9.18,1111122 
DISL,ioos:station:DISL:CATA:1,2014-03-03T17:00:00Z,30.3085,-88.1395,8.66,1111122 
DISL,ioos:station:DISL:CATA:1,2014-03-03T17:30:00Z,30.3085,-88.1395,8.73,1111122 
DISL,ioos:station:DISL:CATA:1,2014-03-03T18:00:00Z,30.3085,-88.1395,8.87,1111122 
DISL,ioos:station:DISL:CATA:1,2014-03-03T18:30:00Z,30.3085,-88.1395,9.49,1111122 
DISL,ioos:station:DISL:CATA:1,2014-03-03T19:00:00Z,30.3085,-88.1395,9.18,1111122 
DISL,ioos:station:DISL:CATA:1,2014-03-03T19:30:00Z,30.3085,-88.1395,10.0,1111122 
DISL,ioos:station:DISL:CATA:1,2014-03-03T20:00:00Z,30.3085,-88.1395,10.55,1111122 
DISL,ioos:station:DISL:CATA:1,2014-03-03T20:30:00Z,30.3085,-88.1395,10.75,1111122 
DISL,ioos:station:DISL:CATA:1,2014-03-03T21:00:00Z,30.3085,-88.1395,11.44,1111122 
DISL,ioos:station:DISL:CATA:1,2014-03-03T21:30:00Z,30.3085,-88.1395,11.23,1111122 
DISL,ioos:station:DISL:CATA:1,2014-03-03T22:00:00Z,30.3085,-88.1395,11.23,1111122 
DISL,ioos:station:DISL:CATA:1,2014-03-03T22:30:00Z,30.3085,-88.1395,10.48,1111122 
DISL,ioos:station:DISL:CATA:1,2014-03-03T23:00:00Z,30.3085,-88.1395,8.94,1111122 
DISL,ioos:station:DISL:CATA:1,2014-03-03T23:30:00Z,30.3085,-88.1395,7.531,1111122 
DISL,ioos:station:DISL:CATA:1,2014-03-04T00:00:00Z,30.3085,-88.1395,6.101,1111122 
DISL,ioos:station:DISL:CATA:1,2014-03-04T00:30:00Z,30.3085,-88.1395,5.146,1111122 
DISL,ioos:station:DISL:CATA:1,2014-03-04T01:00:00Z,30.3085,-88.1395,4.466,1111122 
DISL,ioos:station:DISL:CATA:1,2014-03-04T01:30:00Z,30.3085,-88.1395,3.925,1111122 
DISL,ioos:station:DISL:CATA:1,2014-03-04T02:00:00Z,30.3085,-88.1395,3.102,1111122 
DISL,ioos:station:DISL:CATA:1,2014-03-04T02:30:00Z,30.3085,-88.1395,1.901,1111122 
DISL,ioos:station:DISL:CATA:1,2014-03-04T03:00:00Z,30.3085,-88.1395,2.005,1111122 
DISL,ioos:station:DISL:CATA:1,2014-03-04T03:30:00Z,30.3085,-88.1395,1.388,1111122 
DISL,ioos:station:DISL:CATA:1,2014-03-04T04:00:00Z,30.3085,-88.1395,1.805,1111122 
DISL,ioos:station:DISL:CATA:1,2014-03-04T04:30:00Z,30.3085,-88.1395,1.879,1111122 
DISL,ioos:station:DISL:CATA:1,2014-03-04T05:00:00Z,30.3085,-88.1395,0.783,1111122 
DISL,ioos:station:DISL:CATA:1,2014-03-04T05:30:00Z,30.3085,-88.1395,0.542,1111122 
DISL,ioos:station:DISL:CATA:1,2014-03-04T06:30:00Z,30.3085,-88.1395,0.302,1111122 
DISL,ioos:station:DISL:CATA:1,2014-03-04T07:00:00Z,30.3085,-88.1395,0.336,1111122 
DISL,ioos:station:DISL:CATA:1,2014-03-04T07:30:00Z,30.3085,-88.1395,0.783,1111122 
DISL,ioos:station:DISL:CATA:1,2014-03-04T08:00:00Z,30.3085,-88.1395,0.92,1111122 
DISL,ioos:station:DISL:CATA:1,2014-03-04T08:30:00Z,30.3085,-88.1395,1.023,1111122 
DISL,ioos:station:DISL:CATA:1,2014-03-04T09:00:00Z,30.3085,-88.1395,1.572,1111122 
DISL,ioos:station:DISL:CATA:1,2014-03-04T09:30:00Z,30.3085,-88.1395,0.474,1111122 
DISL,ioos:station:DISL:CATA:1,2014-03-04T10:00:00Z,30.3085,-88.1395,0.371,1111122 
DISL,ioos:station:DISL:CATA:1,2014-03-04T10:30:00Z,30.3085,-88.1395,0.748,1111122 
DISL,ioos:station:DISL:CATA:1,2014-03-04T11:00:00Z,30.3085,-88.1395,0.371,1111122 
DISL,ioos:station:DISL:CATA:1,2014-03-04T11:30:00Z,30.3085,-88.1395,0.542,1111122 
DISL,ioos:station:DISL:CATA:1,2014-03-04T12:00:00Z,30.3085,-88.1395,0.027,1111122 
DISL,ioos:station:DISL:CATA:1,2014-03-04T12:30:00Z,30.3085,-88.1395,1.332,1111122 
DISL,ioos:station:DISL:CATA:1,2014-03-04T13:00:00Z,30.3085,-88.1395,1.16,1111122 
DISL,ioos:station:DISL:CATA:1,2014-03-04T13:30:00Z,30.3085,-88.1395,2.019,1111122 
DISL,ioos:station:DISL:CATA:1,2014-03-04T14:00:00Z,30.3085,-88.1395,1.881,1111122 
DISL,ioos:station:DISL:CATA:1,2014-03-04T14:30:00Z,30.3085,-88.1395,2.153,1111122 
DISL,ioos:station:DISL:CATA:1,2014-03-04T15:00:00Z,30.3085,-88.1395,2.148,1111122 
DISL,ioos:station:DISL:CATA:1,2014-03-04T15:30:00Z,30.3085,-88.1395,2.863,1111122 
DISL,ioos:station:DISL:CATA:1,2014-03-04T16:00:00Z,30.3085,-88.1395,2.246,1111122 
DISL,ioos:station:DISL:CATA:1,2014-03-04T16:30:00Z,30.3085,-88.1395,2.039,1111122 
DISL,ioos:station:DISL:CATA:1,2014-03-04T17:00:00Z,30.3085,-88.1395,2.211,1111122 
DISL,ioos:station:DISL:CATA:1,2014-03-04T17:30:00Z,30.3085,-88.1395,2.656,1111122 
DISL,ioos:station:DISL:CATA:1,2014-03-04T18:00:00Z,30.3085,-88.1395,2.588,1111122 
DISL,ioos:station:DISL:CATA:1,2014-03-04T18:30:00Z,30.3085,-88.1395,2.931,1111122 
DISL,ioos:station:DISL:CATA:1,2014-03-04T19:00:00Z,30.3085,-88.1395,2.896,1111122 
DISL,ioos:station:DISL:CATA:1,2014-03-04T19:30:00Z,30.3085,-88.1395,2.828,1111122 
DISL,ioos:station:DISL:CATA:1,2014-03-04T20:00:00Z,30.3085,-88.1395,2.656,1111122 
DISL,ioos:station:DISL:CATA:1,2014-03-04T20:30:00Z,30.3085,-88.1395,3.205,1111122 
DISL,ioos:station:DISL:CATA:1,2014-03-04T21:00:00Z,30.3085,-88.1395,3.102,1111122 
DISL,ioos:station:DISL:CATA:1,2014-03-04T21:30:00Z,30.3085,-88.1395,3.308,1111122 
DISL,ioos:station:DISL:CATA:1,2014-03-04T22:00:00Z,30.3085,-88.1395,3.308,1111122 
DISL,ioos:station:DISL:CATA:1,2014-03-04T22:30:00Z,30.3085,-88.1395,4.132,1111122 
DISL,ioos:station:DISL:CATA:1,2014-03-04T23:00:00Z,30.3085,-88.1395,4.75,1111122 
DISL,ioos:station:DISL:CATA:1,2014-03-04T23:30:00Z,30.3085,-88.1395,3.857,1111122 
DISL,ioos:station:DISL:CATA:1,2014-03-05T00:00:00Z,30.3085,-88.1395,4.647,1111122 
DISL,ioos:station:DISL:CATA:1,2014-03-05T00:30:00Z,30.3085,-88.1395,4.784,1111122 
DISL,ioos:station:DISL:CATA:1,2014-03-05T01:00:00Z,30.3085,-88.1395,4.955,1111122 
DISL,ioos:station:DISL:CATA:1,2014-03-05T01:30:00Z,30.3085,-88.1395,4.509,1111122 
DISL,ioos:station:DISL:CATA:1,2014-03-05T02:00:00Z,30.3085,-88.1395,3.651,1111122 
DISL,ioos:station:DISL:CATA:1,2014-03-05T02:30:00Z,30.3085,-88.1395,4.063,1111122 
DISL,ioos:station:DISL:CATA:1,2014-03-05T03:00:00Z,30.3085,-88.1395,3.857,1111122 
DISL,ioos:station:DISL:CATA:1,2014-03-05T03:30:00Z,30.3085,-88.1395,4.681,1111122 
DISL,ioos:station:DISL:CATA:1,2014-03-05T04:00:00Z,30.3085,-88.1395,5.264,1111122 
DISL,ioos:station:DISL:CATA:1,2014-03-05T04:30:00Z,30.3085,-88.1395,5.539,1111122 
DISL,ioos:station:DISL:CATA:1,2014-03-05T05:00:00Z,30.3085,-88.1395,5.813,1111122 
DISL,ioos:station:DISL:CATA:1,2014-03-05T05:30:00Z,30.3085,-88.1395,5.985,1111122 
DISL,ioos:station:DISL:CATA:1,2014-03-05T06:30:00Z,30.3085,-88.1395,5.779,1111122 
DISL,ioos:station:DISL:CATA:1,2014-03-05T07:00:00Z,30.3085,-88.1395,6.326,1111122 
DISL,ioos:station:DISL:CATA:1,2014-03-05T07:30:00Z,30.3085,-88.1395,5.809,1111122 
DISL,ioos:station:DISL:CATA:1,2014-03-05T08:00:00Z,30.3085,-88.1395,5.774,1111122 
DISL,ioos:station:DISL:CATA:1,2014-03-05T08:30:00Z,30.3085,-88.1395,5.739,1111122 
DISL,ioos:station:DISL:CATA:1,2014-03-05T09:00:00Z,30.3085,-88.1395,7.007,1111122 
DISL,ioos:station:DISL:CATA:1,2014-03-05T09:30:00Z,30.3085,-88.1395,6.252,1111122 
DISL,ioos:station:DISL:CATA:1,2014-03-05T10:00:00Z,30.3085,-88.1395,6.252,1111122 
DISL,ioos:station:DISL:CATA:1,2014-03-05T10:30:00Z,30.3085,-88.1395,7.04,1111122 
DISL,ioos:station:DISL:CATA:1,2014-03-05T11:00:00Z,30.3085,-88.1395,6.422,1111122 
DISL,ioos:station:DISL:CATA:1,2014-03-05T11:30:00Z,30.3085,-88.1395,6.867,1111122 
DISL,ioos:station:DISL:CATA:1,2014-03-05T12:00:00Z,30.3085,-88.1395,7.416,1111122 
DISL,ioos:station:DISL:CATA:1,2014-03-05T12:30:00Z,30.3085,-88.1395,7.003,1111122 
DISL,ioos:station:DISL:CATA:1,2014-03-05T13:00:00Z,30.3085,-88.1395,6.454,1111122 
DISL,ioos:station:DISL:CATA:1,2014-03-05T13:30:00Z,30.3085,-88.1395,6.626,1111122 
DISL,ioos:station:DISL:CATA:1,2014-03-05T14:00:00Z,30.3085,-88.1395,6.422,1111122 
DISL,ioos:station:DISL:CATA:1,2014-03-05T14:30:00Z,30.3085,-88.1395,7.072,1111122 
DISL,ioos:station:DISL:CATA:1,2014-03-05T15:00:00Z,30.3085,-88.1395,7.308,1111122 
DISL,ioos:station:DISL:CATA:1,2014-03-05T15:30:00Z,30.3085,-88.1395,7.822,1111122 
DISL,ioos:station:DISL:CATA:1,2014-03-05T16:00:00Z,30.3085,-88.1395,7.925,1111122 
DISL,ioos:station:DISL:CATA:1,2014-03-05T16:30:00Z,30.3085,-88.1395,8.82,1111122 
DISL,ioos:station:DISL:CATA:1,2014-03-05T17:00:00Z,30.3085,-88.1395,9.11,1111122 
DISL,ioos:station:DISL:CATA:1,2014-03-05T17:30:00Z,30.3085,-88.1395,9.14,1111122 
DISL,ioos:station:DISL:CATA:1,2014-03-05T18:00:00Z,30.3085,-88.1395,10.03,1111122 
DISL,ioos:station:DISL:CATA:1,2014-03-05T18:30:00Z,30.3085,-88.1395,9.62,1111122 
DISL,ioos:station:DISL:CATA:1,2014-03-05T19:00:00Z,30.3085,-88.1395,10.17,1111122 
DISL,ioos:station:DISL:CATA:1,2014-03-05T19:30:00Z,30.3085,-88.1395,10.93,1111122 
DISL,ioos:station:DISL:CATA:1,2014-03-05T20:00:00Z,30.3085,-88.1395,11.64,1111122 
DISL,ioos:station:DISL:CATA:1,2014-03-05T20:30:00Z,30.3085,-88.1395,12.39,1111122 
DISL,ioos:station:DISL:CATA:1,2014-03-05T21:00:00Z,30.3085,-88.1395,12.08,1111122 
DISL,ioos:station:DISL:CATA:1,2014-03-05T21:30:00Z,30.3085,-88.1395,12.54,1111122 
DISL,ioos:station:DISL:CATA:1,2014-03-05T22:00:00Z,30.3085,-88.1395,12.71,1111122 
DISL,ioos:station:DISL:CATA:1,2014-03-05T22:30:00Z,30.3085,-88.1395,12.95,1111122 
DISL,ioos:station:DISL:CATA:1,2014-03-05T23:00:00Z,30.3085,-88.1395,12.71,1111122 
DISL,ioos:station:DISL:CATA:1,2014-03-05T23:30:00Z,30.3085,-88.1395,12.5,1111122 
DISL,ioos:station:DISL:CATA:1,2014-03-06T00:00:00Z,30.3085,-88.1395,12.5,1111122 
DISL,ioos:station:DISL:CATA:1,2014-03-06T00:30:00Z,30.3085,-88.1395,12.57,1111122 
DISL,ioos:station:DISL:CATA:1,2014-03-06T01:00:00Z,30.3085,-88.1395,12.74,1111122 
DISL,ioos:station:DISL:CATA:1,2014-03-06T01:30:00Z,30.3085,-88.1395,12.61,1111122 
DISL,ioos:station:DISL:CATA:1,2014-03-06T02:00:00Z,30.3085,-88.1395,12.54,1111122 
DISL,ioos:station:DISL:CATA:1,2014-03-06T02:30:00Z,30.3085,-88.1395,12.57,1111122 
DISL,ioos:station:DISL:CATA:1,2014-03-06T03:00:00Z,30.3085,-88.1395,12.02,1111122 
DISL,ioos:station:DISL:CATA:1,2014-03-06T03:30:00Z,30.3085,-88.1395,11.61,1111122 
DISL,ioos:station:DISL:CATA:1,2014-03-06T04:00:00Z,30.3085,-88.1395,12.33,1111122 
DISL,ioos:station:DISL:CATA:1,2014-03-06T04:30:00Z,30.3085,-88.1395,11.65,1111122 
DISL,ioos:station:DISL:CATA:1,2014-03-06T05:00:00Z,30.3085,-88.1395,11.37,1111122 
DISL,ioos:station:DISL:CATA:1,2014-03-06T05:30:00Z,30.3085,-88.1395,11.47,1111122 
DISL,ioos:station:DISL:CATA:1,2014-03-06T06:30:00Z,30.3085,-88.1395,11.34,1111122 
DISL,ioos:station:DISL:CATA:1,2014-03-06T07:00:00Z,30.3085,-88.1395,10.79,1111122 
DISL,ioos:station:DISL:CATA:1,2014-03-06T07:30:00Z,30.3085,-88.1395,10.89,1111122 
DISL,ioos:station:DISL:CATA:1,2014-03-06T08:00:00Z,30.3085,-88.1395,10.72,1111122 
DISL,ioos:station:DISL:CATA:1,2014-03-06T08:30:00Z,30.3085,-88.1395,10.55,1111122 
DISL,ioos:station:DISL:CATA:1,2014-03-06T09:00:00Z,30.3085,-88.1395,11.1,1111122 
DISL,ioos:station:DISL:CATA:1,2014-03-06T09:30:00Z,30.3085,-88.1395,10.89,1111122 
DISL,ioos:station:DISL:CATA:1,2014-03-06T10:00:00Z,30.3085,-88.1395,10.86,1111122 
DISL,ioos:station:DISL:CATA:1,2014-03-06T10:30:00Z,30.3085,-88.1395,10.58,1111122 
DISL,ioos:station:DISL:CATA:1,2014-03-06T11:00:00Z,30.3085,-88.1395,10.27,1111122 
DISL,ioos:station:DISL:CATA:1,2014-03-06T11:30:00Z,30.3085,-88.1395,10.89,1111122 
DISL,ioos:station:DISL:CATA:1,2014-03-06T12:00:00Z,30.3085,-88.1395,10.1,1111122 
DISL,ioos:station:DISL:CATA:1,2014-03-06T12:30:00Z,30.3085,-88.1395,10.62,1111122 
DISL,ioos:station:DISL:CATA:1,2014-03-06T13:00:00Z,30.3085,-88.1395,10.82,1111122 
DISL,ioos:station:DISL:CATA:1,2014-03-06T13:30:00Z,30.3085,-88.1395,10.93,1111122 
DISL,ioos:station:DISL:CATA:1,2014-03-06T14:00:00Z,30.3085,-88.1395,10.93,1111122 
DISL,ioos:station:DISL:CATA:1,2014-03-06T14:30:00Z,30.3085,-88.1395,10.96,1111122 
DISL,ioos:station:DISL:CATA:1,2014-03-06T15:00:00Z,30.3085,-88.1395,10.96,1111122 
DISL,ioos:station:DISL:CATA:1,2014-03-06T15:30:00Z,30.3085,-88.1395,11.47,1111122 
DISL,ioos:station:DISL:CATA:1,2014-03-06T16:00:00Z,30.3085,-88.1395,12.06,1111122 
DISL,ioos:station:DISL:CATA:1,2014-03-06T16:30:00Z,30.3085,-88.1395,11.17,1111122 
DISL,ioos:station:DISL:CATA:1,2014-03-06T17:00:00Z,30.3085,-88.1395,10.79,1111122 
DISL,ioos:station:DISL:CATA:1,2014-03-06T17:30:00Z,30.3085,-88.1395,10.82,1111122 
DISL,ioos:station:DISL:CATA:1,2014-03-06T18:00:00Z,30.3085,-88.1395,10.72,1111122 
DISL,ioos:station:DISL:CATA:1,2014-03-06T18:30:00Z,30.3085,-88.1395,10.96,1111122 
DISL,ioos:station:DISL:CATA:1,2014-03-06T19:00:00Z,30.3085,-88.1395,10.86,1111122 
DISL,ioos:station:DISL:CATA:1,2014-03-06T19:30:00Z,30.3085,-88.1395,10.93,1111122 
DISL,ioos:station:DISL:CATA:1,2014-03-06T20:00:00Z,30.3085,-88.1395,11.75,1111122 
DISL,ioos:station:DISL:CATA:1,2014-03-06T20:30:00Z,30.3085,-88.1395,11.37,1111122 
DISL,ioos:station:DISL:CATA:1,2014-03-06T21:00:00Z,30.3085,-88.1395,11.95,1111122 
DISL,ioos:station:DISL:CATA:1,2014-03-06T21:30:00Z,30.3085,-88.1395,11.54,1111122 
DISL,ioos:station:DISL:CATA:1,2014-03-06T22:00:00Z,30.3085,-88.1395,11.54,1111122 
DISL,ioos:station:DISL:CATA:1,2014-03-06T22:30:00Z,30.3085,-88.1395,10.86,1111122 
DISL,ioos:station:DISL:CATA:1,2014-03-06T23:00:00Z,30.3085,-88.1395,10.75,1111122 
DISL,ioos:station:DISL:CATA:1,2014-03-06T23:30:00Z,30.3085,-88.1395,10.51,1111122 
DISL,ioos:station:DISL:CATA:1,2014-03-07T00:00:00Z,30.3085,-88.1395,11.03,1111122 
DISL,ioos:station:DISL:CATA:1,2014-03-07T00:30:00Z,30.3085,-88.1395,10.48,1111122 
DISL,ioos:station:DISL:CATA:1,2014-03-07T01:00:00Z,30.3085,-88.1395,10.41,1111122 
DISL,ioos:station:DISL:CATA:1,2014-03-07T01:30:00Z,30.3085,-88.1395,10.38,1111122 
DISL,ioos:station:DISL:CATA:1,2014-03-07T02:00:00Z,30.3085,-88.1395,10.55,1111122 
DISL,ioos:station:DISL:CATA:1,2014-03-07T02:30:00Z,30.3085,-88.1395,9.86,1111122 